{"data":{"norad_id":63767,"epoch":"2026-09-20T09:14:26.096064Z","epoch_age_seconds":159770,"freshness":"FRESH","line1":"1 63767U 25089S   26263.38502426  .00019971  00000+0  73307-3 0  9991","line2":"2 63767  43.0029  25.7011 0001687 273.3457  86.7202 15.27589315 78734","mean_motion":15.27589315,"eccentricity":0.0001687,"inclination_deg":43.0029,"raan_deg":25.7011,"arg_perigee_deg":273.3457,"mean_anomaly_deg":86.7202,"bstar":0.00073307,"rev_number":7873,"period_min":94.266173889806,"perigee_km":481.86372633137,"apogee_km":484.1786811093,"semimajor_km":6861.1582037203,"source":"CELESTRAK","updated_at":"2026-09-21T09:00:35.095980Z"}}